Theta_e
350 345 346 344 340 337 336 337 339 342 344 346 347 347 347 346 340 337 336 337 338 338 338 337 334 330 325 321 319 322 326 330 332 334 335 337 340 341 344 342 338 336 334
344 345 347 344 340 336 335 335 335 338 342 344 345 346 345 342 338 337 336 336 336 337 335 329 326 323 320 316 317 321 327 332 329 330 330 329 335 343 345 340 337 335 331
342 346 348 343 339 336 335 334 334 335 336 339 340 340 339 337 336 335 334 334 333 330 326 324 322 319 315 313 314 320 327 338 341 341 340 335 329 334 333 333 335 336 334
341 345 348 343 339 336 335 334 334 333 334 335 336 336 335 335 334 332 331 329 326 323 322 320 317 314 312 311 312 317 324 328 330 334 335 336 339 328 328 327 328 335 336
342 344 347 344 340 336 335 335 334 333 333 334 335 335 335 334 331 329 327 325 321 320 318 317 315 314 313 312 313 315 318 321 326 336 339 338 336 334 332 334 332 329 336
344 345 347 344 340 336 336 336 336 334 333 335 335 336 335 332 329 327 325 321 320 318 317 315 315 316 316 314 314 318 323 328 332 335 336 339 335 334 333 334 331 330 325
341 347 347 344 341 337 336 337 337 336 332 335 336 337 335 330 327 327 324 321 319 318 317 315 316 317 318 318 316 317 321 326 330 332 332 337 337 335 334 334 331 329 327
338 345 348 346 342 338 337 338 339 337 331 333 337 337 334 328 327 327 323 320 318 317 317 316 316 317 318 318 319 319 319 319 320 322 323 330 337 336 335 334 332 331 330
345 347 349 348 343 340 337 338 339 339 333 329 332 334 330 327 325 325 321 319 318 317 317 317 317 317 317 318 318 318 319 319 319 319 319 322 325 330 337 335 333 332 332
346 350 354 350 346 343 339 338 339 340 337 331 328 329 329 327 325 323 321 319 318 317 317 317 316 316 317 317 317 317 317 317 318 323 326 323 321 331 333 336 335 332 332
348 351 354 355 350 345 342 340 340 341 340 335 330 326 327 326 325 323 321 320 318 317 316 316 317 317 317 316 316 316 316 316 325 329 330 331 327 329 330 333 336 334 332
348 351 353 354 353 349 347 343 341 342 343 341 335 330 326 325 324 322 321 320 319 318 317 317 317 317 317 317 317 318 318 317 322 331 333 334 334 333 332 333 336 334 332
348 348 349 351 352 349 351 350 347 345 345 344 340 333 328 326 325 324 322 321 320 319 319 320 321 321 320 320 319 328 329 327 328 331 333 333 333 333 332 334 335 333 332
349 345 344 345 348 348 349 349 351 350 349 347 344 339 332 328 326 325 322 321 320 320 321 326 331 333 331 327 325 331 334 334 334 334 334 334 334 333 333 333 334 333 331
349 348 344 342 342 345 346 348 349 351 351 346 345 343 338 330 325 325 323 322 321 323 330 334 337 338 336 333 334 333 334 335 335 335 335 336 336 335 334 333 333 333 332
349 349 347 341 338 340 344 346 348 352 351 346 344 343 340 335 329 326 325 325 331 334 336 336 337 339 341 338 337 336 336 337 336 336 336 336 336 336 335 335 334 334 333
346 349 348 347 342 337 338 340 342 347 346 346 345 344 343 339 334 328 325 325 328 334 338 339 339 341 342 341 341 339 338 338 337 336 334 336 337 338 337 336 336 338 336
335 342 344 347 346 342 343 336 337 338 341 343 343 342 341 340 336 333 327 324 325 333 340 341 343 344 343 342 340 339 338 337 336 335 336 338 339 340 339 337 337 339 339
333 336 342 345 346 342 342 344 343 342 344 344 344 342 339 338 336 332 328 326 327 333 339 342 343 343 342 341 340 340 338 337 337 336 337 337 341 344 342 338 338 339 340
335 339 341 344 345 341 342 344 344 343 339 341 340 341 340 335 332 332 330 327 329 335 341 343 344 344 342 341 341 340 339 338 336 334 332 336 338 340 343 341 339 339 341
335 341 344 347 346 343 345 347 347 344 339 339 339 340 340 337 331 331 332 333 334 336 340 344 346 344 343 342 341 340 338 337 332 332 332 336 339 339 341 343 341 341 341
330 334 339 345 349 348 345 348 349 348 345 342 341 336 339 342 340 339 339 339 342 344 346 346 345 344 343 341 339 339 338 337 334 334 335 336 339 336 340 342 344 343 342
324 324 330 337 342 346 348 348 347 346 344 345 345 345 344 344 343 344 344 343 343 344 345 346 345 345 343 341 340 338 335 336 329 332 333 335 335 336 334 338 343 344 344
323 323 327 333 337 340 341 343 343 344 343 342 343 343 344 344 343 345 341 342 344 343 345 343 345 344 343 342 339 339 338 336 337 337 335 335 336 337 333 335 340 343 343
323 322 323 323 323 322 321 320 324 337 342 342 341 341 340 340 340 341 339 334 336 338 336 335 338 344 342 342 340 339 338 339 339 336 339 335 336 336 337 333 337 341 342
322 322 322 321 320 320 319 320 323 327 330 331 333 335 338 339 339 340 340 340 338 334 333 330 330 339 341 341 340 339 339 338 337 338 337 338 333 337 335 336 338 340 340
Wind_Speed
20 30 30 29 30 30 29 29 28 30 31 32 32 32 32 30 28 26 23 21 18 17 15 14 12 11 10 10 10 11 12 12 12 12 11 9 8 7 8 9 6 7 7
30 33 32 30 30 30 30 29 29 29 31 32 33 33 31 29 27 24 21 19 18 16 15 14 13 11 11 10 11 11 11 12 10 10 9 8 7 6 7 5 7 7 7
39 35 33 32 31 30 30 30 30 29 30 31 32 32 30 27 24 22 20 19 18 17 15 13 12 11 10 10 10 11 11 10 9 7 6 6 6 4 4 6 7 5 6
39 37 35 34 31 30 30 29 30 29 29 30 31 30 28 25 23 21 20 19 18 16 15 13 12 11 11 11 10 9 8 8 6 4 2 2 2 2 3 5 5 3 4
38 38 37 35 32 30 30 29 28 27 28 30 29 28 26 24 23 21 20 18 17 16 14 13 11 11 10 10 9 8 7 6 4 3 3 6 4 2 1 2 3 2 1
35 37 37 36 34 32 30 29 28 27 27 28 28 26 24 23 22 20 18 17 16 14 12 11 10 10 10 9 8 6 4 3 1 2 4 7 2 4 2 0 2 1 0
35 35 36 35 34 32 31 30 29 28 28 28 26 24 23 21 20 18 17 15 13 11 9 8 8 7 7 7 6 5 3 2 2 4 5 7 3 5 4 5 3 2 1
36 35 33 34 34 34 32 31 29 29 29 27 26 25 22 21 18 16 15 14 12 11 8 7 6 5 4 4 3 1 1 3 5 6 7 5 3 8 9 8 6 5 4
31 34 32 33 33 33 33 32 30 29 29 29 26 25 23 21 19 17 14 12 11 9 8 6 4 3 2 2 1 1 3 4 7 8 9 7 6 7 12 12 11 9 7
31 31 27 33 34 33 32 31 30 29 27 28 27 25 23 21 20 18 16 14 11 9 8 6 5 5 4 4 4 4 6 7 8 9 10 10 9 8 9 15 13 11 11
26 29 25 27 33 34 33 32 30 29 27 26 26 26 24 23 21 19 17 15 13 11 9 7 7 6 6 6 7 7 8 8 9 11 12 10 9 10 13 12 16 13 13
26 31 27 26 31 31 30 33 32 31 29 29 28 27 26 24 22 20 18 16 14 12 10 9 8 8 9 8 9 10 10 9 9 11 12 12 12 13 15 14 13 12 13
32 32 32 26 26 31 25 29 29 31 31 30 29 29 27 25 23 22 20 18 16 14 12 11 10 11 10 11 10 9 8 7 8 10 11 12 12 12 13 10 11 13 14
33 38 38 36 29 33 29 27 24 27 29 31 32 30 28 27 26 24 22 20 18 16 13 12 11 11 11 11 11 10 11 9 9 11 11 14 15 14 11 9 12 14 15
29 32 38 39 36 36 34 28 26 25 31 35 33 32 30 30 29 27 24 22 19 16 15 13 12 11 10 11 11 12 12 13 13 15 15 15 16 16 12 10 12 15 16
29 34 37 39 40 40 37 33 30 31 34 37 35 34 32 31 30 28 25 23 20 17 15 14 14 14 14 14 15 15 14 16 16 17 20 19 17 19 17 12 12 13 16
29 33 35 36 41 44 44 40 38 38 40 38 37 35 34 33 31 29 26 24 23 18 16 16 15 16 15 15 18 18 17 18 19 20 22 23 21 20 20 16 12 11 15
30 33 33 35 39 42 41 43 41 41 40 40 39 38 36 35 33 30 28 29 24 20 19 20 16 18 18 18 20 16 15 18 22 23 23 25 27 26 24 21 16 12 13
32 34 34 34 36 41 37 31 32 32 30 28 34 40 40 38 35 33 30 31 26 24 22 21 20 20 20 17 18 19 18 20 21 24 27 26 26 24 26 26 22 14 13
31 32 34 34 33 38 32 27 24 29 22 25 30 30 36 39 36 33 31 30 28 25 25 23 21 19 20 17 18 18 19 22 24 24 31 30 31 27 24 25 24 20 14
23 26 28 31 28 34 29 27 24 29 34 38 34 24 32 36 35 32 31 30 28 28 29 23 20 17 18 17 13 18 21 23 26 25 26 24 26 22 19 20 23 23 17
27 22 22 24 27 32 32 28 23 22 28 38 35 31 38 44 29 32 26 29 29 26 23 23 20 20 18 16 6 1 4 8 16 13 15 17 19 20 17 14 16 22 20
27 27 26 24 22 22 23 22 19 16 9 17 23 31 32 32 31 27 21 24 31 29 25 25 22 22 19 13 14 6 1 3 4 16 10 18 20 17 16 19 17 19 17
29 25 23 21 19 16 15 14 14 14 10 8 12 17 24 21 21 23 25 19 19 25 22 26 28 25 21 20 11 15 19 15 2 7 4 12 27 26 19 21 19 19 19
29 30 27 24 20 16 11 10 10 9 11 12 13 13 11 14 22 34 28 32 34 28 32 19 34 31 22 18 19 13 13 14 18 8 13 6 11 20 33 29 25 23 22
26 26 25 22 19 16 14 13 12 12 12 11 9 8 10 15 15 18 27 29 31 37 46 46 43 41 28 21 21 21 19 8 9 8 6 7 7 23 25 27 34 28 27
Wind_Direction
172 167 164 160 156 151 147 143 141 140 139 139 142 147 147 146 146 144 143 143 145 145 141 138 134 129 124 119 114 112 111 108 102 95 93 97 96 78 107 101 82 90 88
168 168 165 163 161 155 150 148 146 146 146 145 145 146 148 149 147 146 145 147 147 144 143 140 134 131 127 123 119 118 117 111 107 91 83 80 81 94 111 91 88 86 79
165 166 165 165 163 159 154 152 151 149 148 148 150 150 149 148 149 148 149 149 149 148 144 138 135 133 130 127 126 124 125 114 106 96 79 66 68 81 86 87 83 92 89
164 166 166 166 165 161 158 156 154 152 152 152 152 151 151 152 153 151 152 151 151 146 142 140 141 136 130 130 129 127 123 115 109 94 62 34 61 49 84 71 76 96 91
169 169 167 167 166 164 161 159 158 156 158 158 156 155 155 156 155 155 155 154 150 145 144 142 139 131 128 128 132 138 132 123 117 91 38 344 279 237 128 59 58 71 100
173 171 169 169 168 167 165 163 162 159 161 161 159 158 158 158 157 157 157 155 151 147 148 144 139 135 132 132 135 140 140 137 119 23 16 357 297 218 223 308 339 358 115
175 175 173 172 170 170 169 168 165 162 162 164 163 162 161 161 160 160 161 158 153 149 148 150 145 141 138 132 135 147 168 226 287 323 347 352 265 242 246 259 286 278 250
177 175 177 176 174 173 173 172 171 166 165 167 167 166 165 164 165 166 166 163 159 155 156 161 160 158 152 141 138 144 232 282 299 304 312 318 311 250 256 253 267 264 253
181 177 177 181 180 178 177 176 175 173 170 169 172 171 170 169 170 171 172 172 169 165 168 179 190 203 199 211 257 299 299 303 306 308 307 305 290 286 259 252 259 264 259
183 179 177 182 184 182 180 181 178 178 176 174 174 175 175 176 176 176 178 180 181 181 185 198 213 231 252 268 278 291 300 302 303 308 316 309 295 288 283 259 257 265 266
184 184 178 179 186 185 182 184 182 183 182 182 180 181 180 182 183 186 187 187 191 196 200 213 231 248 265 281 288 288 288 293 293 307 320 329 313 305 309 285 261 261 276
178 188 183 180 184 185 187 186 186 185 188 187 189 186 188 187 190 193 194 196 200 206 216 229 244 258 270 279 288 289 287 289 288 308 313 323 320 313 315 299 261 260 274
182 184 189 181 181 185 183 189 187 188 192 195 195 194 193 192 195 200 203 204 208 214 221 236 250 261 269 279 283 291 300 300 290 297 303 305 305 301 302 284 255 254 267
181 188 193 194 184 189 188 189 195 189 193 199 200 201 198 198 201 205 209 213 217 222 232 242 256 269 274 279 278 282 291 296 301 297 298 302 300 298 296 281 260 264 269
180 183 193 196 195 194 195 189 197 202 200 203 204 204 205 206 207 209 212 218 225 229 235 243 256 271 277 275 281 282 286 291 294 296 297 296 297 299 304 290 273 273 278
187 189 194 198 202 198 199 195 197 203 209 208 208 210 209 214 215 215 216 220 226 231 240 247 259 272 278 282 282 279 281 287 290 293 293 294 296 292 289 289 276 283 280
191 191 194 200 202 203 206 208 207 209 212 212 212 214 217 218 221 223 224 226 231 236 245 250 256 267 272 278 282 284 290 292 292 299 299 297 292 285 277 276 267 272 274
187 194 197 199 204 203 206 208 212 216 216 215 216 219 219 224 224 227 227 231 232 234 243 251 255 265 270 277 283 282 287 295 299 297 294 291 293 291 275 263 259 264 268
195 194 195 199 201 205 207 211 208 208 214 222 223 222 223 223 225 225 228 239 236 237 236 245 255 264 270 277 285 288 293 293 294 294 289 287 289 295 280 268 262 256 259
196 197 197 198 201 202 208 209 206 205 228 244 237 242 237 227 225 227 231 233 240 242 243 240 247 263 272 280 292 291 291 291 292 294 291 288 291 294 288 268 264 258 262
188 185 189 192 197 200 199 199 201 203 205 212 229 246 256 243 227 222 230 237 235 238 247 251 251 256 271 283 289 298 296 296 292 288 289 284 284 294 293 275 267 262 266
184 184 178 179 188 202 203 204 205 193 202 217 218 210 232 237 232 227 215 239 244 239 247 247 253 265 270 277 250 332 323 322 292 288 293 285 282 295 299 297 269 255 260
187 183 183 183 177 182 193 195 202 212 189 196 211 219 227 237 231 229 224 233 251 245 248 258 257 259 260 265 245 220 335 245 326 300 290 294 287 302 298 297 274 255 257
192 181 175 176 181 172 175 183 195 211 210 208 212 231 235 233 228 220 201 210 246 270 274 275 276 262 260 258 256 231 238 250 252 317 260 288 282 288 296 316 291 276 270
192 179 175 170 171 177 179 187 197 211 239 250 258 251 246 240 242 240 244 236 225 243 268 267 282 273 254 255 262 264 252 252 263 228 289 282 277 286 294 301 308 290 288
187 172 169 170 166 170 178 183 182 188 203 216 224 247 255 248 233 239 238 237 238 232 232 241 256 263 254 256 262 266 248 232 236 208 250 287 276 301 305 303 302 290 285